Powrót do katalogu

TVSAT 1

AktywnyŁącznośćGEO
NORAD 18570·PAYLOAD·🇩🇪 Germany

Wystrzelony Nov 21, 1987 z Guiana Space Centre

Loading…

TLE

ŚwieżeSource: Space-Track

Epoka: Sep 9, 2026, 20:06 UTC

1 18570U 87095A   26252.83794564 -.00000039  00000-0  00000+0 0  9995
2 18570  11.1412 327.4933 0061640 137.8347 218.7891  0.98919699129675

Śledź TVSAT 1 w czasie rzeczywistym z AllMySat

Download on the App Store